• In Moldova, Republic
  • List of Countries
  • For 7 days
  • Water Temperature
  • Satellite Maps
  • Weather Map
  • Weather Widgets
  • user-avatar
    Login

    Hourly Weather Albany

    Today, 20 October, Friday

    Time Temperature Precipitation Wind Pressure Humidity
    00:00 +12°C° 0 mm 5 mps 768 mmHg 82%
    01:00 +12°C° 0 mm 5 mps 768 mmHg 84%
    02:00 +11°C° 0 mm 6 mps 768 mmHg 85%
    03:00 +10°C° 0 mm 6 mps 768 mmHg 85%
    04:00 +10°C° 0 mm 5 mps 768 mmHg 86%
    05:00 +10°C° 0 mm 5 mps 768 mmHg 87%
    06:00 +13°C° 0 mm 6 mps 768 mmHg 81%
    07:00 +14°C° 0 mm 6 mps 768 mmHg 74%
    08:00 +16°C° 0 mm 6 mps 768 mmHg 66%
    09:00 +19°C° 0 mm 6 mps 768 mmHg 61%
    10:00 +20°C° 0 mm 6 mps 768 mmHg 56%
    11:00 +22°C° 0 mm 6 mps 768 mmHg 50%
    12:00 +22°C° 0 mm 6 mps 767 mmHg 49%
    13:00 +23°C° 0 mm 6 mps 767 mmHg 48%
    14:00 +23°C° 0 mm 6 mps 766 mmHg 47%
    15:00 +22°C° 0 mm 7 mps 766 mmHg 53%
    16:00 +21°C° 0 mm 7 mps 766 mmHg 58%
    17:00 +18°C° 0 mm 7 mps 766 mmHg 63%
    18:00 +17°C° 0 mm 7 mps 767 mmHg 69%
    19:00 +16°C° 0 mm 7 mps 767 mmHg 75%
    20:00 +14°C° 0 mm 6 mps 767 mmHg 82%
    21:00 +14°C° 0 mm 6 mps 767 mmHg 84%
    22:00 +13°C° 0 mm 6 mps 768 mmHg 86%
    23:00 +13°C° 0 mm 6 mps 768 mmHg 89%

    Tomorrow, 21 October, Saturday

    Time Temperature Precipitation Wind Pressure Humidity
    00:00 +13°C° 0 mm 6 mps 767 mmHg 89%
    01:00 +13°C° 0 mm 6 mps 767 mmHg 90%
    02:00 +13°C° 0 mm 5 mps 766 mmHg 90%
    03:00 +13°C° 0 mm 5 mps 766 mmHg 90%
    04:00 +13°C° 0 mm 5 mps 766 mmHg 91%
    05:00 +13°C° 0 mm 5 mps 765 mmHg 91%
    06:00 +14°C° 0 mm 5 mps 765 mmHg 84%
    07:00 +16°C° 0 mm 5 mps 765 mmHg 77%
    08:00 +17°C° 0 mm 5 mps 765 mmHg 70%
    09:00 +20°C° 0 mm 5 mps 765 mmHg 63%
    10:00 +22°C° 0 mm 6 mps 765 mmHg 56%
    11:00 +24°C° 0 mm 6 mps 764 mmHg 49%
    12:00 +26°C° 0 mm 6 mps 764 mmHg 47%
    13:00 +26°C° 0 mm 6 mps 764 mmHg 46%
    14:00 +27°C° 0 mm 6 mps 763 mmHg 44%
    15:00 +24°C° 0 mm 6 mps 763 mmHg 51%
    16:00 +22°C° 0 mm 7 mps 762 mmHg 58%
    17:00 +20°C° 0 mm 7 mps 762 mmHg 65%
    18:00 +18°C° 0 mm 7 mps 762 mmHg 68%
    19:00 +17°C° 0 mm 7 mps 762 mmHg 70%
    20:00 +17°C° 0 mm 7 mps 762 mmHg 72%
    21:00 +16°C° 0 mm 7 mps 762 mmHg 74%
    22:00 +16°C° 0 mm 6 mps 762 mmHg 76%
    23:00 +16°C° 0 mm 6 mps 761 mmHg 78%

    Day after tomorrow, 22 October, Sunday

    Time Temperature Precipitation Wind Pressure Humidity
    00:00 +16°C° 0.2 mm 6 mps 760 mmHg 82%
    01:00 +15°C° 0.2 mm 6 mps 760 mmHg 85%
    02:00 +15°C° 0.2 mm 5 mps 759 mmHg 88%
    03:00 +15°C° 0.9 mm 5 mps 759 mmHg 91%
    04:00 +15°C° 0.9 mm 4 mps 758 mmHg 93%
    05:00 +15°C° 0.9 mm 4 mps 758 mmHg 96%
    06:00 +17°C° 0.6 mm 4 mps 758 mmHg 94%
    07:00 +17°C° 0.6 mm 4 mps 758 mmHg 92%
    08:00 +18°C° 0.6 mm 4 mps 758 mmHg 90%
    09:00 +20°C° 0.1 mm 4 mps 758 mmHg 82%
    10:00 +21°C° 0.1 mm 5 mps 758 mmHg 73%
    11:00 +23°C° 0.1 mm 5 mps 757 mmHg 65%
    12:00 +23°C° 0.1 mm 5 mps 757 mmHg 65%
    13:00 +23°C° 0.1 mm 5 mps 756 mmHg 64%
    14:00 +23°C° 0.1 mm 5 mps 755 mmHg 64%
    15:00 +23°C° 0 mm 4 mps 755 mmHg 65%
    16:00 +23°C° 0 mm 4 mps 755 mmHg 67%
    17:00 +22°C° 0 mm 4 mps 754 mmHg 68%
    18:00 +21°C° 0 mm 4 mps 755 mmHg 75%
    19:00 +19°C° 0 mm 4 mps 755 mmHg 82%
    20:00 +17°C° 0 mm 3 mps 756 mmHg 89%
    21:00 +16°C° 0 mm 3 mps 756 mmHg 90%
    22:00 +16°C° 0 mm 3 mps 756 mmHg 91%
    23:00 +16°C° 0 mm 2 mps 756 mmHg 93%

    23 October, Monday

    Time Temperature Precipitation Wind Pressure Humidity
    00:00 +15°C° 0 mm 2 mps 755 mmHg 93%
    01:00 +15°C° 0 mm 2 mps 755 mmHg 94%
    02:00 +15°C° 0 mm 1 mps 755 mmHg 94%
    03:00 +14°C° 0 mm 1 mps 755 mmHg 95%
    04:00 +14°C° 0 mm 1 mps 755 mmHg 95%
    05:00 +14°C° 0 mm 1 mps 755 mmHg 96%
    06:00 +16°C° 0 mm 1 mps 755 mmHg 91%
    07:00 +17°C° 0 mm 2 mps 756 mmHg 86%
    08:00 +19°C° 0 mm 2 mps 756 mmHg 82%
    09:00 +20°C° 0 mm 2 mps 756 mmHg 77%
    10:00 +21°C° 0 mm 2 mps 756 mmHg 72%
    11:00 +23°C° 0 mm 2 mps 756 mmHg 67%
    12:00 +22°C° 0 mm 3 mps 756 mmHg 66%
    13:00 +22°C° 0 mm 3 mps 756 mmHg 65%
    14:00 +22°C° 0 mm 4 mps 755 mmHg 65%
    15:00 +21°C° 0 mm 4 mps 756 mmHg 68%
    16:00 +20°C° 0 mm 4 mps 756 mmHg 72%
    17:00 +19°C° 0 mm 4 mps 756 mmHg 76%
    18:00 +18°C° 0 mm 3 mps 757 mmHg 82%
    19:00 +17°C° 0 mm 3 mps 757 mmHg 88%
    20:00 +15°C° 0 mm 2 mps 758 mmHg 94%
    21:00 +15°C° 0 mm 2 mps 758 mmHg 94%
    22:00 +15°C° 0 mm 2 mps 758 mmHg 94%
    23:00 +15°C° 0 mm 2 mps 758 mmHg 95%

    24 October, Tuesday

    Time Temperature Precipitation Wind Pressure Humidity
    00:00 +15°C° 0 mm 2 mps 758 mmHg 95%
    01:00 +15°C° 0 mm 2 mps 758 mmHg 95%
    02:00 +15°C° 0 mm 2 mps 757 mmHg 95%
    03:00 +14°C° 0 mm 3 mps 758 mmHg 94%
    04:00 +14°C° 0 mm 3 mps 758 mmHg 93%
    05:00 +14°C° 0 mm 3 mps 758 mmHg 93%
    06:00 +14°C° 0 mm 3 mps 758 mmHg 88%
    07:00 +16°C° 0 mm 2 mps 759 mmHg 83%
    08:00 +16°C° 0 mm 2 mps 759 mmHg 78%
    09:00 +18°C° 0 mm 2 mps 759 mmHg 72%
    10:00 +19°C° 0 mm 2 mps 759 mmHg 66%
    11:00 +20°C° 0 mm 2 mps 759 mmHg 61%
    12:00 +20°C° 0 mm 2 mps 758 mmHg 58%
    13:00 +21°C° 0 mm 2 mps 758 mmHg 56%
    14:00 +21°C° 0 mm 2 mps 758 mmHg 54%
    15:00 +21°C° 0 mm 2 mps 757 mmHg 57%
    16:00 +20°C° 0 mm 2 mps 757 mmHg 60%
    17:00 +20°C° 0 mm 2 mps 757 mmHg 63%
    18:00 +18°C° 0 mm 2 mps 758 mmHg 71%
    19:00 +16°C° 0 mm 2 mps 758 mmHg 78%
    20:00 +15°C° 0 mm 2 mps 759 mmHg 86%
    21:00 +13°C° 0 mm 3 mps 758 mmHg 87%
    22:00 +13°C° 0 mm 3 mps 758 mmHg 88%
    23:00 +12°C° 0 mm 3 mps 758 mmHg 89%

    25 October, Wednesday

    Time Temperature Precipitation Wind Pressure Humidity
    00:00 +12°C° 0 mm 3 mps 758 mmHg 89%
    01:00 +12°C° 0 mm 4 mps 757 mmHg 88%
    02:00 +12°C° 0 mm 4 mps 757 mmHg 88%
    03:00 +12°C° 0 mm 5 mps 757 mmHg 89%
    04:00 +12°C° 0 mm 5 mps 757 mmHg 89%
    05:00 +11°C° 0 mm 6 mps 757 mmHg 90%
    06:00 +14°C° 0.1 mm 6 mps 757 mmHg 85%
    07:00 +15°C° 0.1 mm 6 mps 757 mmHg 80%
    08:00 +17°C° 0.1 mm 7 mps 758 mmHg 75%
    09:00 +18°C° 0.1 mm 7 mps 758 mmHg 71%
    10:00 +20°C° 0.1 mm 7 mps 758 mmHg 67%
    11:00 +21°C° 0.1 mm 7 mps 758 mmHg 63%
    12:00 +21°C° 0 mm 7 mps 757 mmHg 60%
    13:00 +21°C° 0 mm 6 mps 757 mmHg 57%
    14:00 +22°C° 0 mm 6 mps 757 mmHg 55%
    15:00 +21°C° 0 mm 6 mps 757 mmHg 57%
    16:00 +20°C° 0 mm 6 mps 757 mmHg 60%
    17:00 +19°C° 0 mm 5 mps 757 mmHg 62%
    18:00 +17°C° 0 mm 5 mps 758 mmHg 66%
    19:00 +15°C° 0 mm 4 mps 758 mmHg 70%
    20:00 +14°C° 0 mm 4 mps 758 mmHg 74%
    21:00 +13°C° 0 mm 4 mps 758 mmHg 76%
    22:00 +13°C° 0 mm 4 mps 758 mmHg 78%
    23:00 +12°C° 0 mm 4 mps 757 mmHg 80%
    Show more